TimeMST,TemperatureF,Dew PointF,Humidity,Sea Level PressureIn,VisibilityMPH,Wind Direction,Wind SpeedMPH,Gust SpeedMPH,PrecipitationIn,Events,Conditions,WindDirDegrees,DateUTC
12:52 AM,28.0,23.0,81,30.25,10.0,SSE,12.7,-,N/A,,Clear,150,2012-11-16 07:52:00
1:52 AM,30.0,24.1,79,30.22,10.0,SSE,15.0,-,N/A,,Clear,160,2012-11-16 08:52:00
2:52 AM,30.0,24.1,79,30.18,10.0,SSE,12.7,-,N/A,,Clear,150,2012-11-16 09:52:00
3:52 AM,28.9,24.1,82,30.17,10.0,SSE,9.2,-,N/A,,Clear,160,2012-11-16 10:52:00
4:52 AM,30.0,25.0,82,30.16,10.0,SSE,13.8,-,N/A,,Clear,160,2012-11-16 11:52:00
5:52 AM,30.0,25.0,82,30.14,10.0,SSE,5.8,-,N/A,,Clear,150,2012-11-16 12:52:00
6:52 AM,28.9,25.0,85,30.15,10.0,South,4.6,-,N/A,,Clear,180,2012-11-16 13:52:00
7:52 AM,34.0,28.0,79,30.14,10.0,SSE,4.6,-,N/A,,Clear,150,2012-11-16 14:52:00
8:52 AM,39.0,30.0,70,30.14,10.0,SSE,4.6,-,N/A,,Clear,150,2012-11-16 15:52:00
9:52 AM,45.0,30.9,58,30.11,10.0,SSE,5.8,-,N/A,,Clear,160,2012-11-16 16:52:00
10:52 AM,53.1,32.0,45,30.06,10.0,South,5.8,-,N/A,,Clear,170,2012-11-16 17:52:00
11:52 AM,60.1,28.0,30,30.02,10.0,South,8.1,-,N/A,,Clear,170,2012-11-16 18:52:00
12:52 PM,64.0,26.1,24,29.99,10.0,SSE,11.5,-,N/A,,Clear,150,2012-11-16 19:52:00
1:52 PM,60.1,27.0,28,29.97,10.0,South,12.7,-,N/A,,Clear,170,2012-11-16 20:52:00
2:52 PM,57.0,28.0,33,29.98,10.0,SE,5.8,-,N/A,,Clear,140,2012-11-16 21:52:00
3:52 PM,55.0,27.0,34,29.99,10.0,Calm,Calm,-,N/A,,Clear,0,2012-11-16 22:52:00
4:52 PM,44.1,27.0,51,30.01,10.0,NW,8.1,-,N/A,,Clear,310,2012-11-16 23:52:00
5:52 PM,43.0,30.0,60,30.02,10.0,NNW,10.4,-,N/A,,Clear,340,2012-11-17 00:52:00
6:52 PM,39.0,28.9,67,30.04,10.0,NW,6.9,-,N/A,,Clear,320,2012-11-17 01:52:00
7:52 PM,43.0,30.0,60,30.01,10.0,WSW,4.6,-,N/A,,Partly Cloudy,240,2012-11-17 02:52:00
8:52 PM,39.9,28.9,65,30.00,10.0,Calm,Calm,-,N/A,,Scattered Clouds,0,2012-11-17 03:52:00
9:52 PM,39.0,28.0,65,29.99,10.0,Calm,Calm,-,N/A,,Clear,0,2012-11-17 04:52:00
10:52 PM,36.0,27.0,70,29.98,10.0,Calm,Calm,-,N/A,,Clear,0,2012-11-17 05:52:00
11:52 PM,39.9,28.9,65,29.97,10.0,Calm,Calm,-,N/A,,Clear,0,2012-11-17 06:52:00